TimePST,TemperatureF,Dew PointF,Humidity,Sea Level PressureIn,VisibilityMPH,Wind Direction,Wind SpeedMPH,Gust SpeedMPH,PrecipitationIn,Events,Conditions,WindDirDegrees,DateUTC
12:53 AM,42.1,33.1,70,30.13,10.0,SSW,15.0,-,N/A,,Clear,210,2014-02-21 08:53:00
1:53 AM,41.0,33.1,73,30.14,10.0,SSW,13.8,-,N/A,,Clear,210,2014-02-21 09:53:00
2:53 AM,41.0,32.0,70,30.14,10.0,SSW,11.5,-,N/A,,Clear,210,2014-02-21 10:53:00
3:53 AM,39.0,32.0,76,30.15,10.0,SSW,10.4,-,N/A,,Clear,210,2014-02-21 11:53:00
4:53 AM,37.9,30.9,76,30.17,10.0,South,8.1,-,N/A,,Clear,190,2014-02-21 12:53:00
5:53 AM,37.9,30.9,76,30.16,10.0,South,6.9,-,N/A,,Clear,180,2014-02-21 13:53:00
6:53 AM,37.0,30.9,79,30.16,10.0,SSW,10.4,-,N/A,,Clear,210,2014-02-21 14:53:00
7:53 AM,39.9,32.0,73,30.17,10.0,SSW,12.7,-,N/A,,Clear,210,2014-02-21 15:53:00
8:53 AM,43.0,32.0,65,30.17,10.0,SSW,13.8,-,N/A,,Clear,200,2014-02-21 16:53:00
9:53 AM,45.0,33.1,63,30.18,10.0,SSW,15.0,-,N/A,,Partly Cloudy,210,2014-02-21 17:53:00
10:53 AM,46.9,33.1,59,30.18,10.0,SW,13.8,-,N/A,,Scattered Clouds,220,2014-02-21 18:53:00
11:53 AM,46.9,32.0,56,30.16,4.0,SW,16.1,-,N/A,,Haze,230,2014-02-21 19:53:00
12:53 PM,48.0,30.9,52,30.15,6.0,West,16.1,-,N/A,,Smoke,270,2014-02-21 20:53:00
1:53 PM,48.0,30.9,52,30.13,6.0,West,11.5,-,N/A,,Smoke,260,2014-02-21 21:53:00
2:53 PM,48.9,28.9,46,30.12,10.0,WSW,9.2,-,N/A,,Scattered Clouds,250,2014-02-21 22:53:00
3:53 PM,48.9,28.9,46,30.11,10.0,Calm,Calm,-,N/A,,Mostly Cloudy,0,2014-02-21 23:53:00
4:53 PM,46.9,28.9,50,30.11,10.0,Calm,Calm,-,N/A,,Mostly Cloudy,0,2014-02-22 00:53:00
5:53 PM,44.1,32.0,63,30.12,10.0,NNE,9.2,-,N/A,,Overcast,20,2014-02-22 01:53:00
6:53 PM,42.1,28.0,58,30.13,10.0,NNE,9.2,-,N/A,,Mostly Cloudy,30,2014-02-22 02:53:00
7:53 PM,42.1,27.0,55,30.13,10.0,NE,10.4,-,N/A,,Overcast,40,2014-02-22 03:53:00
8:53 PM,39.9,28.9,65,30.13,10.0,ENE,8.1,-,N/A,,Overcast,70,2014-02-22 04:53:00
9:53 PM,39.9,30.0,68,30.14,10.0,NE,3.5,-,N/A,,Overcast,50,2014-02-22 05:53:00
10:53 PM,39.0,28.9,67,30.14,10.0,SSE,8.1,-,N/A,,Overcast,150,2014-02-22 06:53:00
11:53 PM,39.9,28.9,65,30.15,10.0,SSE,8.1,-,N/A,,Overcast,160,2014-02-22 07:53:00